Volver al catálogo

CZ-3B R/B

ActivoHEO
NORAD 62375·ROCKET BODY·🇨🇳 China

Lanzado Dec 20, 2024 desde Xichang Satellite Launch Center

Loading…

Próximos Pases (próximas 24 horas)

TLE

ActualizadoSource: Space-Track

Época: Sep 13, 2026, 10:36 UTC

1 62375U 24246B   26256.44234089  .00412993  80028-6  14199-2 0  9994
2 62375  28.0158 280.8323 5671599 103.6767 322.5006  4.68702139 21468

Sigue CZ-3B R/B en tiempo real con AllMySat

Download on the App Store